Weather History for Fresno, CA

Change the Weather History Date:

Saturday, September 21, 2013

  Actual Average Record
Temperature  
Mean Temperature 74 °F 75 °F  
Max Temperature 85 °F 90 °F 102 °F (1949)
Min Temperature 62 °F 60 °F 42 °F (1968)
Degree Days  
Heating Degree Days 0    
Month to date heating degree days 0  
Since 1 July heating degree days 0  
Cooling Degree Days 9    
Month to date cooling degree days 350  
Year to date cooling degree days 2496  
Growing Degree Days 23 (Base 50)    
Moisture  
Dew Point 55 °F    
Average Humidity 55    
Maximum Humidity 78    
Minimum Humidity 32    
Precipitation  
Precipitation T in 0.01 in 0.14 in (1916)
Month to date precipitation T 0.09  
Year to date precipitation 2.28 7.95  
Since 1 July precipitation T 0.11  
Snow  
Snow 0.00 in - - ()
Month to date snowfall 0.0  
Since 1 July snowfall 0.0  
Since 1 September snowfall 0.0  
Snow Depth 0.00 in    
Sea Level Pressure  
Sea Level Pressure 29.81 in    
Wind  
Wind Speed 8 mph (WNW)    
Max Wind Speed 31 mph    
Max Gust Speed 36 mph    
Visibility 8 miles    
Events Rain    
T = Trace of Precipitation, MM = Missing Value Source: NWS Daily Summary

Daily Weather History Graph

Daily Weather History Graph

Search for Another Location

Airport:

Trip Planner

Search our weather history database for the weather conditions in past years. The results will help you decide how hot, cold, wet, or windy it might be!

Date:

Astronomy

Sep. 21, 2013 Rise Set
Actual Time 6:46 AM PDT 6:56 PM PDT
Civil Twilight 6:20 AM PDT 7:22 PM PDT
Nautical Twilight 5:50 AM PDT 7:52 PM PDT
Astronomical Twilight 5:19 AM PDT 8:23 PM PDT
Moon 8:15 PM PDT (9/21) 9:05 AM PDT (9/21)
Length of Visible Light 13h 02m
Length of Day
12h 10m
Waning Gibbous, 94% of the Moon is Illuminated
Sep 21
Waning Gibbous
Sep 26
Last Quarter
Oct 4
New
Oct 11
First Quarter
Oct 18
Full

Hourly Weather History & Observations

Time (PDT) Temp. Heat Index Dew Point Humidity Pressure Visibility Wind Dir Wind Speed Gust Speed Precip Events Conditions
12:53 AM 68.0 °F - 57.0 °F 68% 29.81 in 10.0 mi WNW 16.1 mph - N/A   Clear
1:53 AM 66.9 °F - 57.0 °F 70% 29.82 in 10.0 mi NW 11.5 mph - N/A   Clear
2:53 AM 66.0 °F - 57.0 °F 73% 29.83 in 10.0 mi WNW 11.5 mph - N/A   Clear
3:53 AM 64.9 °F - 57.0 °F 75% 29.83 in 10.0 mi NW 5.8 mph - N/A   Clear
4:53 AM 64.0 °F - 55.9 °F 75% 29.83 in 10.0 mi North 3.5 mph - N/A   Clear
5:53 AM 63.0 °F - 55.9 °F 78% 29.84 in 10.0 mi North 3.5 mph - N/A   Clear
6:53 AM 62.1 °F - 55.9 °F 80% 29.84 in 10.0 mi Calm Calm - N/A   Scattered Clouds
7:53 AM 64.9 °F - 55.9 °F 73% 29.85 in 10.0 mi North 3.5 mph - N/A   Scattered Clouds
8:53 AM 68.0 °F - 55.9 °F 65% 29.85 in 10.0 mi East 3.5 mph - N/A   Scattered Clouds
9:53 AM 72.0 °F - 57.0 °F 59% 29.86 in 10.0 mi SE 5.8 mph - N/A   Mostly Cloudy
10:53 AM 73.9 °F - 55.0 °F 52% 29.85 in 10.0 mi South 3.5 mph - N/A   Mostly Cloudy
11:53 AM 78.1 °F - 53.1 °F 42% 29.83 in 10.0 mi Calm Calm - 0.00 in   Mostly Cloudy
12:53 PM 81.0 °F - 52.0 °F 36% 29.81 in 10.0 mi SE 9.2 mph - N/A   Mostly Cloudy
1:53 PM 81.0 °F 80.8 °F 55.9 °F 42% 29.79 in 6.0 mi Variable 3.5 mph - 0.00 in   Haze
2:53 PM 82.0 °F 81.3 °F 54.0 °F 38% 29.76 in 10.0 mi SSW 10.4 mph - 0.00 in   Mostly Cloudy
3:53 PM 84.9 °F - 52.0 °F 32% 29.73 in 10.0 mi South 11.5 mph 18.4 mph N/A   Mostly Cloudy
4:47 PM 80.6 °F 80.3 °F 53.6 °F 39% 29.74 in 0.8 mi WNW 28.8 mph 35.7 mph N/A   Haze
4:49 PM 77.0 °F - 55.4 °F 47% 29.74 in 1.5 mi WNW 29.9 mph 35.7 mph N/A   Widespread Dust
4:53 PM 75.0 °F - 55.9 °F 51% 29.74 in 1.5 mi WNW 26.5 mph 35.7 mph N/A   Widespread Dust
5:00 PM 75.2 °F - 55.4 °F 50% 29.75 in 1.5 mi NW 21.9 mph 34.5 mph N/A   Widespread Dust
5:14 PM 73.4 °F - 55.4 °F 53% 29.76 in 3.0 mi NW 21.9 mph 28.8 mph N/A   Widespread Dust
5:53 PM 71.1 °F - 55.9 °F 59% 29.78 in 3.0 mi NNW 21.9 mph 34.5 mph 0.00 in Rain Light Rain
6:53 PM 66.0 °F - 55.0 °F 68% 29.81 in 3.0 mi NW 20.7 mph 31.1 mph 0.01 in   Haze
7:53 PM 64.9 °F - 53.1 °F 65% 29.83 in 10.0 mi NW 13.8 mph 20.7 mph N/A   Mostly Cloudy
8:53 PM 66.0 °F - 51.1 °F 59% 29.85 in 10.0 mi NW 10.4 mph - N/A   Mostly Cloudy
9:53 PM 64.0 °F - 52.0 °F 65% 29.87 in 10.0 mi WNW 11.5 mph - N/A   Scattered Clouds
10:53 PM 63.0 °F - 50.0 °F 63% 29.88 in 10.0 mi West 10.4 mph - N/A   Partly Cloudy
11:53 PM 62.1 °F - 50.0 °F 65% 29.88 in 10.0 mi WNW 9.2 mph - N/A   Partly Cloudy